Regional Weather Roundup
Issued by NWS Kansas City/Pleasant Hill, MO

Home | Current Version | Previous Version | Text Only | Print | Product List | Glossary Off
Versions: 1 2 3 4 5 6 7 8 9 10 11 12 13 14 15 16 17 18 19 20 21 22 23 24 25 26 27 28 29 30 31 32 33 34 35 36 37 38 39 40 41 42 43 44 45 46 47 48 49 50

000
ASUS43 KEAX 221610
RWREAX

WEATHER ROUNDUP FOR EASTERN KANSAS AND NORTHWEST MISSOURI
NATIONAL WEATHER SERVICE KANSAS CITY/PLEASANT HILL MO
1100 AM CDT FRI SEP 22 2017

KSZ040-057-103>105-MOZ028-029-037-043-221700-
...KANSAS CITY METROPOLITAN AREA...

CITY           SKY/WX    TMP DP  RH WIND       PRES   REMARKS
K.C. INTL      SUNNY     82  72  71 S16       29.98R
K.C. DOWNTOWN  SUNNY     84  72  67 S13       29.97S
LEES SUMMIT    SUNNY     83  71  67 S17G23    30.00S
OLATHE - IXD   SUNNY     81  70  69 S14G22    29.99S
OLATHE - OJC   SUNNY     81  72  74 S13       29.99S
LAWRENCE       SUNNY     83  72  69 S13       29.96S

$$

MOZ001>008-011>017-020>025-030>033-038>040-044>046-053-054-221700-
...NORTHERN AND CENTRAL MISSOURI...

CITY           SKY/WX    TMP DP  RH WIND       PRES   REMARKS
ST. JOSEPH     SUNNY     84  72  67 S15       29.95R
MOSBY          SUNNY     82  68  61 S10       29.99S
WARRENSBURG    SUNNY     82  68  61 S14       30.02S
WHITEMAN AFB   SUNNY     84  73  70 S16       30.01S HX  90
CLINTON        SUNNY     82  72  69 S8        30.03F
SEDALIA        SUNNY     85  72  65 S10       30.05S HX  91
WARSAW         NOT AVBL
CHILLICOTHE      N/A     84  72  67 S14G20    30.01R
KIRKSVILLE     SUNNY     84  71  65 S9        30.04S

$$

MOZ041-047>049-056>058-063>065-088>090-097-221700-
...EASTERN AND SOUTHERN MISSOURI...

CITY           SKY/WX    TMP DP  RH WIND       PRES   REMARKS
ST. LOUIS INTL MOSUNNY   89  69  51 S7        30.08S HX  93
SPIRIT OF STL  SUNNY     88  71  57 VRB5      30.06F HX  94
COLUMBIA       SUNNY     85  71  63 S8        30.06S HX  90
JEFFERSON CITY SUNNY     85  68  56 S8        30.05R
ROLLA          SUNNY     86  69  56 S14G20    30.09S HX  90
OSAGE BEACH    SUNNY     84  72  67 S6        30.06S
SPRINGFIELD    SUNNY     83  71  67 S10       30.07R
BRANSON        MOSUNNY   84  68  58 S7        30.10R
JOPLIN         SUNNY     83  71  67 SW17      30.04R
WEST PLAINS    SUNNY     85  67  54 S9        30.11S

$$

IAZ060-094-KSZ022-034>040-054-083-096-NEZ052-066-093-221700-
...KANSAS...SOUTHEAST NEBRASKA AND IOWA...

CITY           SKY/WX    TMP DP  RH WIND       PRES   REMARKS
TOPEKA         SUNNY     84  73  69 S13G20    29.94S HX  90
MANHATTAN      SUNNY     87  70  56 S16G24    29.88F HX  92
EMPORIA        SUNNY     82  70  66 S15G22    29.96R
CHANUTE        SUNNY     83  71  67 S14       30.00S
WICHITA        MOSUNNY   84  70  62 S20       29.92S
OMAHA          MOSUNNY   85  70  60 S18       29.85R
LINCOLN        SUNNY     87  69  54 S22       29.83S HX  91
FALLS CITY     SUNNY     84  70  62 S17G25    29.91R
LAMONI         SUNNY     83  71  67 S15G23    29.98S
DES MOINES     MOSUNNY   84  71  65 S17       29.94S

$$




USA.gov is the U.S. government's official web portal to all federal, state and local government web resources and services.